| time (UTC) | temp C | wind direction | speed KPH | gust KPH | rain 1hr cm | rain 24hr cm | rain mn cm | humidity % | barometer mb |
| 20260508025925 | 5 | 236 | 1.6 | 3.2 | 0.00 | 0.00 | 0.00 | 52 | 1007.2 |
| 20260508025422 | 5 | 191 | 0.0 | 4.8 | 0.00 | 0.00 | 0.00 | 53 | 1007.0 |
| 20260508024919 | 5 | 268 | 3.2 | 4.8 | 0.00 | 0.00 | 0.00 | 53 | 1007.1 |
| 20260508024416 | 5 | 288 | 12.9 | 14.5 | 0.00 | 0.00 | 0.00 | 52 | 1007.2 |
| 20260508023912 | 5 | 308 | 4.8 | 9.7 | 0.00 | 0.00 | 0.00 | 52 | 1007.2 |
| 20260508023409 | 6 | 281 | 1.6 | 9.7 | 0.00 | 0.00 | 0.00 | 52 | 1007.1 |
| 20260508022906 | 5 | 287 | 3.2 | 11.3 | 0.00 | 0.00 | 0.00 | 52 | 1007.0 |
| 20260508022401 | 6 | 297 | 9.7 | 9.7 | 0.00 | 0.00 | 0.00 | 52 | 1007.1 |
| 20260508021859 | 6 | 268 | 6.4 | 11.3 | 0.00 | 0.00 | 0.00 | 51 | 1007.2 |
| 20260508021355 | 6 | 325 | 4.8 | 6.4 | 0.00 | 0.00 | 0.00 | 52 | 1007.3 |
| 20260508020850 | 6 | 345 | 0.0 | 4.8 | 0.00 | 0.00 | 0.00 | 59 | 1007.1 |
| 20260508020349 | 6 | 314 | 0.0 | 6.4 | 0.00 | 0.00 | 0.00 | 51 | 1007.0 |
| 20260508015845 | 6 | 251 | 1.6 | 4.8 | 0.00 | 0.00 | 0.00 | 51 | 1007.0 |
| 20260508015343 | 6 | 303 | 4.8 | 6.4 | 0.00 | 0.00 | 0.00 | 52 | 1007.1 |
| 20260508014839 | 6 | 297 | 9.7 | 12.9 | 0.00 | 0.00 | 0.00 | 51 | 1007.0 |
| 20260508014337 | 6 | 274 | 3.2 | 9.7 | 0.00 | 0.00 | 0.00 | 50 | 1007.1 |
| 20260508013837 | 6 | 309 | 8.0 | 8.0 | 0.00 | 0.00 | 0.00 | 51 | 1007.1 |
| 20260508013334 | 6 | 314 | 4.8 | 8.0 | 0.00 | 0.00 | 0.00 | 49 | 1007.3 |
| 20260508012831 | 6 | 317 | 0.0 | 8.0 | 0.00 | 0.00 | 0.00 | 50 | 1007.2 |
| 20260508012329 | 5 | 27 | 1.6 | 8.0 | 0.00 | 0.00 | 0.00 | 52 | 1007.1 |
| 20260508011826 | 6 | 32 | 3.2 | 4.8 | 0.00 | 0.00 | 0.00 | 56 | 1007.2 |
| 20260508011324 | 6 | 68 | 1.6 | 4.8 | 0.00 | 0.00 | 0.00 | 55 | 1007.3 |
| 20260508010821 | 6 | 107 | 4.8 | 4.8 | 0.00 | 0.00 | 0.00 | 55 | 1007.2 |
| 20260508010319 | 6 | 337 | 3.2 | 9.7 | 0.00 | 0.00 | 0.00 | 52 | 1007.1 |
| 20260508005815 | 6 | 275 | 3.2 | 4.8 | 0.00 | 0.00 | 0.00 | 50 | 1007.3 |
| 20260508005312 | 6 | 353 | 4.8 | 4.8 | 0.00 | 0.00 | 0.00 | 50 | 1007.2 |
| 20260508004808 | 6 | 116 | 0.0 | 3.2 | 0.00 | 0.00 | 0.00 | 51 | 1007.3 |
| 20260508004304 | 7 | 87 | 4.8 | 8.0 | 0.00 | 0.00 | 0.00 | 49 | 1007.0 |
| 20260508003801 | 7 | 271 | 9.7 | 14.5 | 0.00 | 0.00 | 0.00 | 45 | 1006.9 |
| 20260508003259 | 7 | 350 | 6.4 | 8.0 | 0.00 | 0.00 | 0.00 | 48 | 1006.9 |
| 20260508002755 | 7 | 32 | 0.0 | 6.4 | 0.00 | 0.00 | 0.00 | 46 | 1006.7 |
| 20260508002252 | 7 | 331 | 3.2 | 14.5 | 0.00 | 0.00 | 0.00 | 45 | 1006.7 |
| 20260508001748 | 7 | 284 | 3.2 | 9.7 | 0.00 | 0.00 | 0.00 | 44 | 1006.7 |
| 20260508001243 | 7 | 286 | 8.0 | 11.3 | 0.00 | 0.00 | 0.00 | 44 | 1006.7 |
| 20260508000740 | 7 | 311 | 6.4 | 14.5 | 0.00 | 0.00 | 0.00 | 44 | 1006.5 |
| 20260508000237 | 7 | 309 | 6.4 | 16.1 | 0.00 | 0.00 | 0.00 | 43 | 1006.5 |
| 20260507235733 | 8 | 284 | 8.0 | 19.3 | 0.00 | 0.00 | 0.00 | 43 | 1006.6 |
| 20260507235231 | 8 | 275 | 8.0 | 14.5 | 0.00 | 0.00 | 0.00 | 43 | 1006.4 |
| 20260507234728 | 8 | 311 | 9.7 | 14.5 | 0.00 | 0.00 | 0.00 | 43 | 1006.4 |
| 20260507234224 | 8 | 283 | 6.4 | 11.3 | 0.00 | 0.00 | 0.00 | 43 | 1006.5 |
| 20260507233721 | 8 | 287 | 8.0 | 20.9 | 0.00 | 0.00 | 0.00 | 41 | 1006.5 |
| 20260507233219 | 8 | 315 | 11.3 | 12.9 | 0.00 | 0.00 | 0.00 | 41 | 1006.5 |
| 20260507232716 | 9 | 305 | 4.8 | 19.3 | 0.00 | 0.00 | 0.00 | 41 | 1006.2 |
| 20260507232213 | 10 | 337 | 4.8 | 16.1 | 0.00 | 0.00 | 0.00 | 40 | 1006.1 |
| 20260507231710 | 10 | 306 | 14.5 | 22.5 | 0.00 | 0.00 | 0.00 | 41 | 1006.0 |
| 20260507231207 | 10 | 308 | 6.4 | 19.3 | 0.00 | 0.00 | 0.00 | 39 | 1005.9 |
| 20260507230703 | 10 | 260 | 19.3 | 27.4 | 0.00 | 0.00 | 0.00 | 39 | 1005.9 |
| 20260507230201 | 10 | 300 | 9.7 | 20.9 | 0.00 | 0.00 | 0.00 | 38 | 1006.0 |
| 20260507225700 | 10 | 300 | 6.4 | 17.7 | 0.00 | 0.00 | 0.00 | 40 | 1005.8 |
| 20260507225157 | 10 | 294 | 9.7 | 19.3 | 0.00 | 0.00 | 0.00 | 39 | 1005.9 |
| 20260507224653 | 11 | 315 | 17.7 | 22.5 | 0.00 | 0.00 | 0.00 | 37 | 1005.9 |
| 20260507224149 | 11 | 326 | 9.7 | 24.1 | 0.00 | 0.00 | 0.00 | 38 | 1005.9 |
| 20260507223645 | 11 | 332 | 6.4 | 27.4 | 0.00 | 0.00 | 0.00 | 38 | 1005.7 |
| 20260507223142 | 11 | 326 | 16.1 | 29.0 | 0.00 | 0.00 | 0.00 | 38 | 1005.6 |
| 20260507222639 | 11 | 283 | 16.1 | 27.4 | 0.00 | 0.00 | 0.00 | 40 | 1005.7 |
| 20260507222136 | 11 | 303 | 8.0 | 22.5 | 0.00 | 0.00 | 0.00 | 39 | 1005.7 |
| 20260507221632 | 11 | 314 | 14.5 | 27.4 | 0.00 | 0.00 | 0.00 | 38 | 1005.8 |
| 20260507221128 | 11 | 283 | 9.7 | 12.9 | 0.00 | 0.00 | 0.00 | 41 | 1005.5 |
| 20260507220626 | 11 | 306 | 20.9 | 22.5 | 0.00 | 0.00 | 0.00 | 38 | 1005.4 |
| 20260507220124 | 12 | 289 | 12.9 | 32.2 | 0.00 | 0.00 | 0.00 | 38 | 1005.5 |
| 20260507215619 | 11 | 296 | 16.1 | 25.7 | 0.00 | 0.00 | 0.00 | 40 | 1005.4 |
| 20260507215117 | 11 | 291 | 20.9 | 22.5 | 0.00 | 0.00 | 0.00 | 38 | 1005.5 |
| 20260507214614 | 11 | 271 | 12.9 | 24.1 | 0.00 | 0.00 | 0.00 | 37 | 1005.3 |
| 20260507214110 | 11 | 232 | 17.7 | 24.1 | 0.00 | 0.00 | 0.00 | 40 | 1005.1 |
| 20260507213607 | 11 | 301 | 14.5 | 20.9 | 0.00 | 0.00 | 0.00 | 39 | 1005.2 |
| 20260507213104 | 12 | 306 | 20.9 | 29.0 | 0.00 | 0.00 | 0.00 | 37 | 1005.5 |
| 20260507212600 | 11 | 284 | 24.1 | 25.7 | 0.00 | 0.00 | 0.00 | 41 | 1005.3 |
| 20260507212057 | 12 | 299 | 17.7 | 20.9 | 0.00 | 0.00 | 0.00 | 42 | 1005.1 |
| 20260507211553 | 11 | 294 | 16.1 | 20.9 | 0.00 | 0.00 | 0.00 | 41 | 1005.1 |
| 20260507211049 | 11 | 295 | 11.3 | 11.3 | 0.00 | 0.00 | 0.00 | 41 | 1005.1 |
| 20260507210547 | 11 | 265 | 9.7 | 20.9 | 0.00 | 0.00 | 0.00 | 40 | 1005.0 |
| 20260507210043 | 12 | 269 | 14.5 | 29.0 | 0.00 | 0.00 | 0.00 | 41 | 1005.0 |
| 20260507205540 | 12 | 334 | 6.4 | 16.1 | 0.00 | 0.00 | 0.00 | 38 | 1005.0 |
| 20260507205037 | 11 | 291 | 32.2 | 33.8 | 0.00 | 0.00 | 0.00 | 40 | 1005.0 |
| 20260507204533 | 12 | 262 | 24.1 | 27.4 | 0.00 | 0.00 | 0.00 | 42 | 1004.7 |
| 20260507204031 | 12 | 291 | 24.1 | 35.4 | 0.00 | 0.00 | 0.00 | 39 | 1004.8 |
| 20260507203529 | 12 | 262 | 20.9 | 24.1 | 0.00 | 0.00 | 0.00 | 42 | 1004.9 |
| 20260507203026 | 12 | 288 | 9.7 | 32.2 | 0.00 | 0.00 | 0.00 | 39 | 1004.8 |
| 20260507202521 | 12 | 305 | 19.3 | 30.6 | 0.00 | 0.00 | 0.00 | 41 | 1004.7 |
| 20260507202018 | 12 | 290 | 11.3 | 35.4 | 0.00 | 0.00 | 0.00 | 39 | 1004.7 |
| 20260507201513 | 12 | 284 | 29.0 | 30.6 | 0.00 | 0.00 | 0.00 | 38 | 1004.6 |
| 20260507201010 | 12 | 282 | 19.3 | 24.1 | 0.00 | 0.00 | 0.00 | 41 | 1004.5 |
| 20260507200505 | 12 | 266 | 12.9 | 24.1 | 0.00 | 0.00 | 0.00 | 39 | 1004.5 |
| 20260507200001 | 12 | 289 | 17.7 | 25.7 | 0.00 | 0.00 | 0.00 | 42 | 1004.5 |
| 20260507195459 | 13 | 316 | 20.9 | 33.8 | 0.00 | 0.00 | 0.00 | 40 | 1004.6 |
| 20260507194956 | 12 | 278 | 22.5 | 38.6 | 0.00 | 0.00 | 0.00 | 39 | 1004.4 |
| 20260507194453 | 12 | 239 | 27.4 | 32.2 | 0.00 | 0.00 | 0.00 | 40 | 1004.2 |
| 20260507193948 | 11 | 276 | 9.7 | 27.4 | 0.00 | 0.00 | 0.00 | 40 | 1004.3 |
| 20260507193446 | 12 | 325 | 8.0 | 20.9 | 0.00 | 0.00 | 0.00 | 41 | 1004.5 |
| 20260507192942 | 13 | 306 | 20.9 | 30.6 | 0.00 | 0.00 | 0.00 | 38 | 1004.3 |
| 20260507192438 | 13 | 285 | 16.1 | 24.1 | 0.00 | 0.00 | 0.00 | 38 | 1004.3 |
| 20260507191936 | 13 | 287 | 20.9 | 22.5 | 0.00 | 0.00 | 0.00 | 40 | 1004.2 |
| 20260507191431 | 13 | 251 | 14.5 | 32.2 | 0.00 | 0.00 | 0.00 | 35 | 1004.2 |
| 20260507190928 | 13 | 284 | 14.5 | 32.2 | 0.00 | 0.00 | 0.00 | 40 | 1004.3 |
| 20260507190426 | 13 | 252 | 16.1 | 20.9 | 0.00 | 0.00 | 0.00 | 36 | 1004.2 |
| 20260507185925 | 13 | 282 | 19.3 | 29.0 | 0.00 | 0.00 | 0.00 | 37 | 1004.2 |
| 20260507185422 | 13 | 245 | 17.7 | 29.0 | 0.00 | 0.00 | 0.00 | 35 | 1004.3 |
| 20260507184918 | 13 | 303 | 20.9 | 24.1 | 0.00 | 0.00 | 0.00 | 38 | 1004.2 |
| 20260507184416 | 13 | 265 | 9.7 | 27.4 | 0.00 | 0.00 | 0.00 | 38 | 1004.3 |
| 20260507183914 | 13 | 244 | 25.7 | 25.7 | 0.00 | 0.00 | 0.00 | 39 | 1004.2 |
| 20260507183410 | 13 | 287 | 14.5 | 20.9 | 0.00 | 0.00 | 0.00 | 40 | 1004.4 |
| 20260507182908 | 13 | 290 | 9.7 | 27.4 | 0.00 | 0.00 | 0.00 | 38 | 1004.3 |
| 20260507182403 | 13 | 266 | 19.3 | 25.7 | 0.00 | 0.00 | 0.00 | 40 | 1004.5 |
| 20260507181900 | 13 | 256 | 19.3 | 25.7 | 0.00 | 0.00 | 0.00 | 42 | 1004.5 |
| 20260507181356 | 13 | 290 | 19.3 | 30.6 | 0.00 | 0.00 | 0.00 | 44 | 1004.5 |
| 20260507180853 | 13 | 268 | 12.9 | 25.7 | 0.00 | 0.00 | 0.00 | 46 | 1004.6 |
| 20260507180349 | 12 | 299 | 17.7 | 25.7 | 0.00 | 0.00 | 0.00 | 50 | 1004.7 |
| 20260507175845 | 13 | 232 | 12.9 | 27.4 | 0.00 | 0.00 | 0.00 | 49 | 1004.5 |
| 20260507175343 | 13 | 281 | 12.9 | 24.1 | 0.00 | 0.00 | 0.00 | 48 | 1004.6 |
| 20260507174840 | 12 | 297 | 16.1 | 22.5 | 0.00 | 0.00 | 0.00 | 48 | 1004.5 |
| 20260507174337 | 12 | 293 | 12.9 | 27.4 | 0.00 | 0.00 | 0.00 | 50 | 1004.6 |
| 20260507173835 | 12 | 264 | 12.9 | 20.9 | 0.00 | 0.00 | 0.00 | 55 | 1004.7 |
| 20260507173332 | 11 | 260 | 8.0 | 27.4 | 0.00 | 0.00 | 0.00 | 57 | 1004.8 |
| 20260507172828 | 11 | 273 | 12.9 | 24.1 | 0.00 | 0.00 | 0.00 | 58 | 1004.9 |
| 20260507172325 | 11 | 271 | 14.5 | 22.5 | 0.00 | 0.00 | 0.00 | 59 | 1004.8 |
| 20260507171820 | 11 | 296 | 16.1 | 22.5 | 0.00 | 0.00 | 0.00 | 58 | 1004.9 |
| 20260507171318 | 12 | 255 | 12.9 | 25.7 | 0.00 | 0.00 | 0.00 | 58 | 1005.0 |
| 20260507170815 | 11 | 284 | 14.5 | 25.7 | 0.00 | 0.00 | 0.00 | 58 | 1005.2 |
| 20260507170311 | 11 | 307 | 14.5 | 22.5 | 0.00 | 0.00 | 0.00 | 60 | 1005.1 |
| 20260507165807 | 11 | 250 | 16.1 | 25.7 | 0.00 | 0.00 | 0.00 | 58 | 1005.1 |
| 20260507165306 | 11 | 262 | 12.9 | 19.3 | 0.00 | 0.00 | 0.00 | 61 | 1005.3 |
| 20260507164759 | 11 | 251 | 19.3 | 19.3 | 0.00 | 0.00 | 0.00 | 60 | 1005.4 |
| 20260507164257 | 11 | 248 | 12.9 | 19.3 | 0.00 | 0.00 | 0.00 | 60 | 1005.5 |
| 20260507163754 | 11 | 300 | 9.7 | 20.9 | 0.00 | 0.00 | 0.00 | 63 | 1005.4 |
| 20260507163251 | 11 | 302 | 19.3 | 24.1 | 0.00 | 0.00 | 0.00 | 62 | 1005.4 |
| 20260507162747 | 11 | 263 | 16.1 | 25.7 | 0.00 | 0.00 | 0.00 | 61 | 1005.5 |
| 20260507162243 | 11 | 318 | 16.1 | 16.1 | 0.00 | 0.00 | 0.00 | 61 | 1005.4 |
| 20260507161740 | 11 | 254 | 9.7 | 20.9 | 0.00 | 0.00 | 0.00 | 63 | 1005.6 |
| 20260507161237 | 11 | 259 | 4.8 | 17.7 | 0.00 | 0.00 | 0.00 | 59 | 1005.4 |
| 20260507160732 | 11 | 264 | 14.5 | 17.7 | 0.00 | 0.00 | 0.00 | 63 | 1005.6 |
| 20260507160229 | 11 | 282 | 9.7 | 17.7 | 0.00 | 0.00 | 0.00 | 60 | 1005.5 |
| 20260507155725 | 11 | 322 | 8.0 | 14.5 | 0.00 | 0.00 | 0.00 | 61 | 1005.6 |
| 20260507155221 | 11 | 281 | 9.7 | 19.3 | 0.00 | 0.00 | 0.00 | 62 | 1005.8 |
| 20260507154718 | 11 | 308 | 12.9 | 24.1 | 0.00 | 0.00 | 0.00 | 61 | 1005.8 |
| 20260507154216 | 12 | 281 | 16.1 | 29.0 | 0.00 | 0.00 | 0.00 | 58 | 1005.8 |
| 20260507153712 | 12 | 247 | 17.7 | 22.5 | 0.00 | 0.00 | 0.00 | 56 | 1005.7 |
| 20260507153209 | 12 | 303 | 12.9 | 24.1 | 0.00 | 0.00 | 0.00 | 57 | 1005.6 |
| 20260507152705 | 11 | 289 | 12.9 | 22.5 | 0.00 | 0.00 | 0.00 | 60 | 1005.9 |
| 20260507152201 | 11 | 230 | 12.9 | 16.1 | 0.00 | 0.00 | 0.00 | 62 | 1005.8 |
| 20260507151657 | 11 | 253 | 17.7 | 20.9 | 0.00 | 0.00 | 0.00 | 61 | 1005.7 |
| 20260507151154 | 11 | 261 | 14.5 | 24.1 | 0.00 | 0.00 | 0.00 | 61 | 1005.6 |
| 20260507150651 | 11 | 276 | 8.0 | 27.4 | 0.00 | 0.00 | 0.00 | 63 | 1005.7 |
| 20260507150148 | 11 | 277 | 14.5 | 24.1 | 0.00 | 0.00 | 0.00 | 63 | 1005.9 |
| 20260507145643 | 12 | 273 | 14.5 | 17.7 | 0.00 | 0.00 | 0.00 | 61 | 1005.8 |
| 20260507145141 | 11 | 316 | 17.7 | 20.9 | 0.00 | 0.00 | 0.00 | 63 | 1005.7 |
| 20260507144637 | 11 | 269 | 12.9 | 19.3 | 0.00 | 0.00 | 0.00 | 64 | 1005.8 |
| 20260507144136 | 11 | 251 | 14.5 | 22.5 | 0.00 | 0.00 | 0.00 | 68 | 1005.8 |
| 20260507143632 | 11 | 306 | 19.3 | 24.1 | 0.00 | 0.00 | 0.00 | 65 | 1005.8 |
| 20260507143129 | 11 | 282 | 22.5 | 25.7 | 0.00 | 0.00 | 0.00 | 63 | 1005.7 |
| 20260507142624 | 11 | 283 | 17.7 | 22.5 | 0.00 | 0.00 | 0.00 | 66 | 1005.8 |
| 20260507142122 | 11 | 246 | 11.3 | 19.3 | 0.00 | 0.00 | 0.00 | 63 | 1006.0 |
| 20260507141618 | 11 | 277 | 11.3 | 19.3 | 0.00 | 0.00 | 0.00 | 64 | 1006.1 |
| 20260507141115 | 11 | 299 | 16.1 | 19.3 | 0.00 | 0.00 | 0.00 | 65 | 1006.0 |
| 20260507140611 | 11 | 276 | 12.9 | 24.1 | 0.00 | 0.00 | 0.00 | 65 | 1005.9 |
| 20260507140109 | 10 | 231 | 4.8 | 22.5 | 0.00 | 0.00 | 0.00 | 66 | 1005.9 |
| 20260507135606 | 10 | 306 | 12.9 | 16.1 | 0.00 | 0.00 | 0.00 | 67 | 1005.8 |
| 20260507135103 | 11 | 256 | 8.0 | 19.3 | 0.00 | 0.00 | 0.00 | 67 | 1005.9 |
| 20260507134559 | 10 | 303 | 24.1 | 29.0 | 0.00 | 0.00 | 0.00 | 67 | 1005.7 |
| 20260507134055 | 11 | 294 | 17.7 | 19.3 | 0.00 | 0.00 | 0.00 | 68 | 1005.9 |
| 20260507133551 | 10 | 263 | 11.3 | 17.7 | 0.00 | 0.00 | 0.00 | 70 | 1005.8 |
| 20260507133049 | 10 | 303 | 14.5 | 17.7 | 0.00 | 0.00 | 0.00 | 68 | 1006.1 |
| 20260507132546 | 10 | 260 | 9.7 | 16.1 | 0.00 | 0.00 | 0.00 | 69 | 1006.0 |
| 20260507132042 | 10 | 257 | 9.7 | 17.7 | 0.00 | 0.00 | 0.00 | 67 | 1006.0 |
| 20260507131539 | 10 | 278 | 6.4 | 14.5 | 0.00 | 0.00 | 0.00 | 66 | 1006.1 |
| 20260507131037 | 10 | 291 | 9.7 | 14.5 | 0.00 | 0.00 | 0.00 | 69 | 1006.1 |
| 20260507130533 | 10 | 247 | 8.0 | 12.9 | 0.00 | 0.00 | 0.00 | 69 | 1006.2 |
| 20260507130031 | 10 | 246 | 6.4 | 12.9 | 0.00 | 0.00 | 0.00 | 69 | 1006.1 |
| 20260507125529 | 10 | 265 | 6.4 | 9.7 | 0.00 | 0.00 | 0.00 | 72 | 1006.0 |
| 20260507125027 | 10 | 277 | 8.0 | 14.5 | 0.00 | 0.00 | 0.00 | 70 | 1006.1 |
| 20260507124523 | 10 | 280 | 9.7 | 14.5 | 0.00 | 0.00 | 0.00 | 68 | 1006.2 |
| 20260507124021 | 9 | 274 | 6.4 | 9.7 | 0.00 | 0.00 | 0.00 | 71 | 1006.3 |
| 20260507123519 | 9 | 257 | 6.4 | 11.3 | 0.00 | 0.00 | 0.00 | 71 | 1006.0 |
| 20260507123015 | 9 | 287 | 3.2 | 9.7 | 0.00 | 0.00 | 0.00 | 69 | 1006.2 |
| 20260507122510 | 8 | 283 | 6.4 | 9.7 | 0.00 | 0.00 | 0.00 | 71 | 1006.4 |
| 20260507122007 | 8 | 302 | 8.0 | 14.5 | 0.00 | 0.00 | 0.00 | 72 | 1006.3 |
| 20260507121502 | 8 | 276 | 6.4 | 11.3 | 0.00 | 0.00 | 0.00 | 74 | 1006.4 |
| 20260507120958 | 8 | 286 | 6.4 | 6.4 | 0.00 | 0.00 | 0.00 | 74 | 1006.2 |
| 20260507120454 | 8 | 257 | 4.8 | 11.3 | 0.00 | 0.00 | 0.00 | 73 | 1006.3 |
| 20260507115952 | 8 | 229 | 1.6 | 6.4 | 0.00 | 0.00 | 0.00 | 73 | 1006.4 |
| 20260507115448 | 8 | 286 | 4.8 | 11.3 | 0.00 | 0.00 | 0.00 | 74 | 1006.5 |
| 20260507114943 | 8 | 246 | 6.4 | 8.0 | 0.00 | 0.00 | 0.00 | 75 | 1006.5 |
| 20260507114440 | 8 | 243 | 0.0 | 3.2 | 0.00 | 0.00 | 0.00 | 77 | 1006.5 |
| 20260507113937 | 7 | 236 | 9.7 | 9.7 | 0.00 | 0.00 | 0.00 | 76 | 1006.6 |
| 20260507113434 | 7 | 252 | 8.0 | 8.0 | 0.00 | 0.00 | 0.00 | 78 | 1006.6 |
| 20260507112932 | 7 | 254 | 6.4 | 11.3 | 0.00 | 0.00 | 0.00 | 80 | 1006.7 |
| 20260507112429 | 7 | 288 | 6.4 | 6.4 | 0.00 | 0.00 | 0.00 | 83 | 1006.7 |
| 20260507111926 | 6 | 162 | 4.8 | 4.8 | 0.00 | 0.00 | 0.00 | 90 | 1006.5 |
| 20260507111423 | 6 | 126 | 1.6 | 3.2 | 0.00 | 0.00 | 0.00 | 92 | 1006.3 |
| 20260507110919 | 5 | 115 | 3.2 | 3.2 | 0.00 | 0.00 | 0.00 | 92 | 1006.5 |
| 20260507110415 | 5 | 135 | 0.0 | 1.6 | 0.00 | 0.00 | 0.00 | 91 | 1006.4 |
| 20260507105913 | 6 | 84 | 0.0 | 3.2 | 0.00 | 0.00 | 0.00 | 88 | 1006.4 |
| 20260507105409 | 6 | 261 | 4.8 | 6.4 | 0.00 | 0.00 | 0.00 | 81 | 1006.6 |
| 20260507104906 | 6 | 257 | 3.2 | 6.4 | 0.00 | 0.00 | 0.00 | 81 | 1006.7 |
| 20260507104402 | 6 | 295 | 3.2 | 8.0 | 0.00 | 0.00 | 0.00 | 82 | 1006.6 |
| 20260507103858 | 6 | 186 | 1.6 | 4.8 | 0.00 | 0.00 | 0.00 | 85 | 1006.6 |
| 20260507103355 | 6 | 220 | 3.2 | 4.8 | 0.00 | 0.00 | 0.00 | 80 | 1006.4 |
| 20260507102851 | 6 | 211 | 1.6 | 6.4 | 0.00 | 0.00 | 0.00 | 82 | 1006.6 |
| 20260507102348 | 6 | 94 | 0.0 | 3.2 | 0.00 | 0.00 | 0.00 | 85 | 1006.2 |
| 20260507101844 | 6 | 304 | 1.6 | 8.0 | 0.00 | 0.00 | 0.00 | 79 | 1006.3 |
| 20260507101344 | 6 | 328 | 0.0 | 6.4 | 0.00 | 0.00 | 0.00 | 81 | 1006.5 |
| 20260507100842 | 6 | 263 | 3.2 | 4.8 | 0.00 | 0.00 | 0.00 | 84 | 1006.3 |
| 20260507100340 | 6 | 304 | 3.2 | 9.7 | 0.00 | 0.00 | 0.00 | 80 | 1006.2 |
| 20260507095838 | 6 | 247 | 0.0 | 16.1 | 0.00 | 0.00 | 0.00 | 80 | 1006.4 |
| 20260507095334 | 5 | 318 | 4.8 | 12.9 | 0.00 | 0.00 | 0.00 | 83 | 1006.2 |
| 20260507094831 | 5 | 273 | 3.2 | 9.7 | 0.00 | 0.00 | 0.00 | 94 | 1006.2 |
| 20260507094327 | 5 | 204 | 0.0 | 3.2 | 0.00 | 0.00 | 0.00 | 94 | 1006.2 |
| 20260507093825 | 5 | 153 | 0.0 | 3.2 | 0.00 | 0.00 | 0.00 | 93 | 1005.9 |
| 20260507093324 | 5 | 83 | 3.2 | 4.8 | 0.00 | 0.00 | 0.00 | 92 | 1006.0 |
| 20260507092821 | 5 | 81 | 1.6 | 4.8 | 0.00 | 0.00 | 0.00 | 90 | 1006.3 |
| 20260507092317 | 5 | 33 | 0.0 | 3.2 | 0.00 | 0.00 | 0.00 | 90 | 1006.3 |
| 20260507091814 | 5 | 76 | 0.0 | 4.8 | 0.00 | 0.00 | 0.00 | 87 | 1006.5 |
| 20260507091310 | 5 | 250 | 3.2 | 4.8 | 0.00 | 0.00 | 0.00 | 86 | 1006.3 |
| 20260507090805 | 5 | 253 | 4.8 | 8.0 | 0.00 | 0.00 | 0.00 | 89 | 1006.4 |
| 20260507090302 | 5 | 299 | 1.6 | 3.2 | 0.00 | 0.00 | 0.00 | 93 | 1006.2 |
| 20260507085759 | 5 | 107 | 1.6 | 3.2 | 0.00 | 0.00 | 0.00 | 92 | 1006.2 |
| 20260507085256 | 5 | 80 | 0.0 | 3.2 | 0.00 | 0.00 | 0.00 | 90 | 1006.2 |
| 20260507084753 | 5 | 202 | 0.0 | 3.2 | 0.00 | 0.00 | 0.00 | 86 | 1006.1 |
| 20260507084249 | 5 | 243 | 3.2 | 3.2 | 0.00 | 0.00 | 0.00 | 87 | 1005.9 |
| 20260507083747 | 5 | 253 | 3.2 | 3.2 | 0.00 | 0.00 | 0.00 | 91 | 1006.0 |
| 20260507083243 | 5 | 114 | 3.2 | 3.2 | 0.00 | 0.00 | 0.00 | 89 | 1005.9 |
| 20260507082739 | 5 | 301 | 4.8 | 6.4 | 0.00 | 0.00 | 0.00 | 92 | 1005.7 |
| 20260507082235 | 5 | 259 | 3.2 | 3.2 | 0.00 | 0.00 | 0.00 | 94 | 1005.6 |
| 20260507081732 | 5 | 115 | 1.6 | 3.2 | 0.00 | 0.00 | 0.00 | 93 | 1005.5 |
| 20260507081228 | 6 | 305 | 0.0 | 1.6 | 0.00 | 0.00 | 0.00 | 92 | 1005.7 |
| 20260507080725 | 6 | 352 | 0.0 | 1.6 | 0.00 | 0.00 | 0.00 | 89 | 1006.1 |
| 20260507080221 | 6 | 296 | 4.8 | 4.8 | 0.00 | 0.00 | 0.00 | 89 | 1006.2 |
| 20260507075717 | 5 | 279 | 3.2 | 3.2 | 0.00 | 0.00 | 0.00 | 90 | 1006.4 |
| 20260507075213 | 5 | 296 | 1.6 | 4.8 | 0.00 | 0.00 | 0.00 | 91 | 1006.5 |
| 20260507074710 | 5 | 283 | 1.6 | 3.2 | 0.00 | 0.00 | 0.00 | 90 | 1006.5 |
| 20260507074208 | 6 | 103 | 0.0 | 3.2 | 0.00 | 0.00 | 0.00 | 90 | 1006.3 |
| 20260507073704 | 5 | 304 | 0.0 | 3.2 | 0.00 | 0.00 | 0.00 | 90 | 1006.3 |
| 20260507073200 | 5 | 282 | 0.0 | 1.6 | 0.00 | 0.00 | 0.00 | 93 | 1005.8 |
| 20260507072658 | 5 | 266 | 4.8 | 4.8 | 0.00 | 0.00 | 0.00 | 94 | 1005.9 |
| 20260507072155 | 5 | 165 | 0.0 | 1.6 | 0.00 | 0.00 | 0.00 | 93 | 1005.9 |
| 20260507071653 | 6 | 38 | 0.0 | 3.2 | 0.00 | 0.00 | 0.00 | 91 | 1005.7 |
| 20260507071149 | 6 | 298 | 1.6 | 3.2 | 0.00 | 0.00 | 0.00 | 88 | 1005.9 |
| 20260507070646 | 6 | 324 | 8.0 | 16.1 | 0.00 | 0.00 | 0.00 | 88 | 1005.9 |
| 20260507070143 | 6 | 139 | 3.2 | 3.2 | 0.00 | 0.00 | 0.00 | 91 | 1006.0 |
| 20260507065639 | 6 | 154 | 3.2 | 3.2 | 0.00 | 0.00 | 0.00 | 89 | 1005.8 |
| 20260507065136 | 6 | 306 | 6.4 | 8.0 | 0.00 | 0.00 | 0.00 | 86 | 1005.7 |
| 20260507064634 | 6 | 312 | 9.7 | 14.5 | 0.00 | 0.00 | 0.00 | 85 | 1005.8 |
| 20260507064133 | 6 | 294 | 12.9 | 12.9 | 0.00 | 0.00 | 0.00 | 86 | 1005.7 |
| 20260507063630 | 6 | 295 | 8.0 | 17.7 | 0.00 | 0.00 | 0.00 | 86 | 1005.3 |
| 20260507063127 | 6 | 317 | 4.8 | 9.7 | 0.00 | 0.00 | 0.00 | 87 | 1005.3 |
| 20260507062623 | 6 | 287 | 9.7 | 12.9 | 0.00 | 0.00 | 0.00 | 86 | 1005.5 |
| 20260507062121 | 6 | 305 | 9.7 | 17.7 | 0.00 | 0.00 | 0.00 | 86 | 1005.6 |
| 20260507061619 | 6 | 286 | 11.3 | 17.7 | 0.00 | 0.00 | 0.00 | 85 | 1005.3 |
| 20260507061117 | 7 | 319 | 3.2 | 6.4 | 0.00 | 0.00 | 0.00 | 86 | 1005.4 |
| 20260507060614 | 6 | 274 | 6.4 | 8.0 | 0.00 | 0.00 | 0.00 | 89 | 1005.5 |
| 20260507060111 | 6 | 268 | 6.4 | 8.0 | 0.00 | 0.00 | 0.00 | 90 | 1005.6 |
| 20260507055606 | 6 | 302 | 9.7 | 14.5 | 0.00 | 0.00 | 0.00 | 96 | 1005.5 |
| 20260507055102 | 6 | 243 | 3.2 | 3.2 | 0.00 | 0.00 | 0.00 | 97 | 1005.5 |
| 20260507054558 | 7 | 174 | 0.0 | 3.2 | 0.00 | 0.00 | 0.00 | 97 | 1005.2 |
| 20260507054055 | 7 | 219 | 0.0 | 3.2 | 0.00 | 0.00 | 0.00 | 97 | 1005.2 |
| 20260507053553 | 7 | 121 | 3.2 | 3.2 | 0.00 | 0.00 | 0.00 | 97 | 1005.0 |
| 20260507053052 | 7 | 124 | 0.0 | 1.6 | 0.00 | 0.00 | 0.00 | 97 | 1004.6 |
| 20260507052549 | 7 | 119 | 0.0 | 0.0 | 0.00 | 0.00 | 0.00 | 97 | 1004.9 |
| 20260507052046 | 7 | 283 | 0.0 | 3.2 | 0.00 | 0.00 | 0.00 | 97 | 1005.3 |
| 20260507051543 | 7 | 150 | 0.0 | 1.6 | 0.00 | 0.00 | 0.00 | 97 | 1005.4 |
| 20260507051040 | 7 | 6 | 0.0 | 1.6 | 0.00 | 0.00 | 0.00 | 97 | 1005.3 |
| 20260507050536 | 7 | 141 | 1.6 | 1.6 | 0.00 | 0.00 | 0.00 | 96 | 1005.6 |
| 20260507050033 | 7 | 222 | 1.6 | 3.2 | 0.00 | 0.00 | 0.00 | 96 | 1005.3 |
| 20260507045530 | 7 | 109 | 1.6 | 3.2 | 0.00 | 0.00 | 0.00 | 96 | 1005.2 |
| 20260507045027 | 7 | 235 | 0.0 | 1.6 | 0.05 | 0.00 | 0.00 | 96 | 1005.4 |
| 20260507044524 | 7 | 338 | 0.0 | 1.6 | 0.05 | 0.00 | 0.00 | 95 | 1005.5 |
| 20260507044020 | 7 | 193 | 0.0 | 1.6 | 0.00 | 0.00 | 0.00 | 95 | 1005.3 |
| 20260507043516 | 7 | 123 | 3.2 | 3.2 | 0.00 | 0.00 | 0.00 | 95 | 1005.1 |
| 20260507043014 | 7 | 214 | 3.2 | 4.8 | 0.00 | 0.00 | 0.00 | 94 | 1005.4 |
| 20260507042510 | 7 | 272 | 4.8 | 6.4 | 0.00 | 0.00 | 0.00 | 94 | 1005.4 |
| 20260507042005 | 7 | 202 | 0.0 | 1.6 | 0.00 | 0.00 | 0.00 | 94 | 1005.5 |
| 20260507041503 | 7 | 250 | 6.4 | 6.4 | 0.00 | 0.00 | 0.00 | 95 | 1005.5 |
| 20260507040959 | 7 | 309 | 3.2 | 3.2 | 0.00 | 0.00 | 0.00 | 95 | 1005.6 |
| 20260507040455 | 7 | 283 | 0.0 | 3.2 | 0.05 | 0.00 | 0.00 | 95 | 1005.7 |
| 20260507035951 | 8 | 231 | 4.8 | 4.8 | 0.05 | 3.53 | 3.53 | 95 | 1005.6 |
| 20260507035448 | 8 | 314 | 4.8 | 8.0 | 0.00 | 3.51 | 3.51 | 96 | 1005.4 |
| 20260507034945 | 8 | 240 | 0.0 | 1.6 | 0.05 | 3.51 | 3.51 | 97 | 1005.5 |
| 20260507034441 | 8 | 177 | 1.6 | 3.2 | 0.13 | 3.51 | 3.51 | 96 | 1005.5 |
| 20260507033940 | 8 | 113 | 0.0 | 1.6 | 0.13 | 3.51 | 3.51 | 96 | 1005.5 |
| 20260507033437 | 8 | 303 | 8.0 | 12.9 | 0.18 | 3.48 | 3.48 | 97 | 1005.7 |
| 20260507032934 | 8 | 267 | 4.8 | 6.4 | 0.18 | 3.48 | 3.48 | 97 | 1005.7 |
| 20260507032431 | 8 | 262 | 3.2 | 4.8 | 0.05 | 3.45 | 3.45 | 97 | 1005.5 |
| 20260507031927 | 8 | 243 | 0.0 | 3.2 | 0.00 | 3.45 | 3.45 | 97 | 1005.4 |
| 20260507031426 | 8 | 249 | 4.8 | 4.8 | 0.00 | 3.45 | 3.45 | 97 | 1005.3 |
| 20260507030920 | 8 | 242 | 3.2 | 4.8 | 0.13 | 3.45 | 3.45 | 97 | 1005.3 |
| 20260507030418 | 8 | 231 | 1.6 | 4.8 | 0.30 | 3.45 | 3.45 | 98 | 1005.2 |